• In Czech Republic
  • List of Countries
  • For 7 days
  • Water Temperature
  • Satellite Maps
  • Weather Map
  • Weather Widgets
  • user-avatar
    Login

    Hourly Weather Idzhewan

    Today, 21 January, Sunday

    Time Temperature Precipitation Wind Pressure Humidity
    00:00 +3°C° 0 mm 2 mps 696 mmHg 75%
    01:00 +3°C° 0 mm 2 mps 696 mmHg 75%
    02:00 +2°C° 0 mm 2 mps 696 mmHg 74%
    03:00 +2°C° 0 mm 2 mps 695 mmHg 74%
    04:00 +2°C° 0 mm 2 mps 695 mmHg 73%
    05:00 +2°C° 0 mm 2 mps 695 mmHg 72%
    06:00 +2°C° 0 mm 2 mps 695 mmHg 71%
    07:00 +3°C° 0 mm 2 mps 695 mmHg 69%
    08:00 +3°C° 0 mm 2 mps 695 mmHg 66%
    09:00 +4°C° 0 mm 2 mps 695 mmHg 63%
    10:00 +5°C° 0 mm 2 mps 695 mmHg 61%
    11:00 +7°C° 0 mm 2 mps 695 mmHg 58%
    12:00 +8°C° 0 mm 2 mps 694 mmHg 55%
    13:00 +8°C° 0 mm 2 mps 694 mmHg 54%
    14:00 +9°C° 0 mm 2 mps 694 mmHg 54%
    15:00 +9°C° 0 mm 2 mps 694 mmHg 53%
    16:00 +7°C° 0 mm 2 mps 694 mmHg 56%
    17:00 +6°C° 0 mm 2 mps 695 mmHg 59%
    18:00 +3°C° 0 mm 3 mps 695 mmHg 61%
    19:00 +3°C° 0 mm 3 mps 695 mmHg 60%
    20:00 +3°C° 0 mm 3 mps 695 mmHg 58%
    21:00 +3°C° 0 mm 3 mps 695 mmHg 56%
    22:00 +3°C° 0 mm 3 mps 695 mmHg 56%
    23:00 +3°C° 0 mm 3 mps 694 mmHg 56%

    Tomorrow, 22 January, Monday

    Time Temperature Precipitation Wind Pressure Humidity
    00:00 +2°C° 0 mm 3 mps 694 mmHg 55%
    01:00 +2°C° 0 mm 3 mps 694 mmHg 55%
    02:00 +3°C° 0 mm 3 mps 694 mmHg 55%
    03:00 +3°C° 0 mm 3 mps 693 mmHg 54%
    04:00 +4°C° 0 mm 2 mps 693 mmHg 54%
    05:00 +4°C° 0 mm 2 mps 693 mmHg 54%
    06:00 +4°C° 0 mm 2 mps 692 mmHg 53%
    07:00 +4°C° 0 mm 2 mps 692 mmHg 52%
    08:00 +5°C° 0 mm 2 mps 692 mmHg 51%
    09:00 +5°C° 0 mm 2 mps 692 mmHg 51%
    10:00 +6°C° 0 mm 2 mps 691 mmHg 49%
    11:00 +9°C° 0 mm 1 mps 691 mmHg 48%
    12:00 +10°C° 0 mm 1 mps 690 mmHg 47%
    13:00 +10°C° 0 mm 1 mps 690 mmHg 47%
    14:00 +10°C° 0 mm 1 mps 690 mmHg 48%
    15:00 +10°C° 0 mm 1 mps 689 mmHg 48%
    16:00 +8°C° 0 mm 1 mps 689 mmHg 49%
    17:00 +6°C° 0 mm 2 mps 689 mmHg 51%
    18:00 +5°C° 0 mm 2 mps 689 mmHg 52%
    19:00 +4°C° 0 mm 2 mps 689 mmHg 51%
    20:00 +4°C° 0 mm 2 mps 689 mmHg 49%
    21:00 +3°C° 0 mm 3 mps 689 mmHg 48%
    22:00 +2°C° 0 mm 3 mps 689 mmHg 47%
    23:00 +2°C° 0 mm 3 mps 689 mmHg 47%

    Day after tomorrow, 23 January, Tuesday

    Time Temperature Precipitation Wind Pressure Humidity
    00:00 +2°C° 0 mm 3 mps 689 mmHg 47%
    01:00 +2°C° 0 mm 3 mps 689 mmHg 48%
    02:00 +2°C° 0 mm 3 mps 689 mmHg 49%
    03:00 +2°C° 0 mm 3 mps 689 mmHg 50%
    04:00 +1°C° 0 mm 3 mps 689 mmHg 50%
    05:00 +1°C° 0 mm 3 mps 689 mmHg 51%
    06:00 +1°C° 0 mm 3 mps 689 mmHg 51%
    07:00 +2°C° 0 mm 3 mps 689 mmHg 50%
    08:00 +2°C° 0 mm 3 mps 689 mmHg 49%
    09:00 +3°C° 0 mm 3 mps 689 mmHg 49%
    10:00 +5°C° 0 mm 2 mps 689 mmHg 47%
    11:00 +7°C° 0 mm 2 mps 688 mmHg 45%
    12:00 +8°C° 0 mm 2 mps 688 mmHg 43%
    13:00 +8°C° 0 mm 2 mps 688 mmHg 43%
    14:00 +8°C° 0 mm 2 mps 688 mmHg 44%
    15:00 +9°C° 0 mm 2 mps 688 mmHg 45%
    16:00 +8°C° 0 mm 2 mps 688 mmHg 48%
    17:00 +7°C° 0 mm 2 mps 688 mmHg 50%
    18:00 +6°C° 0 mm 2 mps 688 mmHg 53%
    19:00 +5°C° 0 mm 2 mps 688 mmHg 53%
    20:00 +5°C° 0 mm 2 mps 688 mmHg 54%
    21:00 +5°C° 0 mm 2 mps 689 mmHg 54%
    22:00 +5°C° 0 mm 2 mps 689 mmHg 55%
    23:00 +5°C° 0 mm 2 mps 689 mmHg 56%

    24 January, Wednesday

    Time Temperature Precipitation Wind Pressure Humidity
    00:00 +5°C° 0 mm 2 mps 689 mmHg 57%
    01:00 +4°C° 0 mm 2 mps 689 mmHg 59%
    02:00 +4°C° 0 mm 2 mps 689 mmHg 61%
    03:00 +4°C° 0 mm 2 mps 689 mmHg 62%
    04:00 +4°C° 0 mm 2 mps 689 mmHg 63%
    05:00 +3°C° 0 mm 2 mps 690 mmHg 63%
    06:00 +3°C° 0 mm 2 mps 690 mmHg 64%
    07:00 +3°C° 0 mm 2 mps 690 mmHg 63%
    08:00 +4°C° 0 mm 2 mps 691 mmHg 63%
    09:00 +4°C° 0 mm 2 mps 691 mmHg 62%
    10:00 +5°C° 0 mm 2 mps 691 mmHg 61%
    11:00 +6°C° 0 mm 2 mps 691 mmHg 59%
    12:00 +7°C° 0 mm 2 mps 692 mmHg 57%
    13:00 +8°C° 0 mm 2 mps 692 mmHg 57%
    14:00 +8°C° 0 mm 2 mps 692 mmHg 57%
    15:00 +8°C° 0 mm 2 mps 692 mmHg 57%
    16:00 +7°C° 0 mm 2 mps 692 mmHg 61%
    17:00 +5°C° 0 mm 2 mps 693 mmHg 66%
    18:00 +5°C° 0 mm 1 mps 693 mmHg 70%
    19:00 +5°C° 0 mm 1 mps 694 mmHg 71%
    20:00 +4°C° 0 mm 1 mps 694 mmHg 72%
    21:00 +4°C° 0 mm 1 mps 694 mmHg 73%
    22:00 +4°C° 0 mm 1 mps 694 mmHg 73%
    23:00 +4°C° 0 mm 1 mps 695 mmHg 73%

    25 January, Thursday

    Time Temperature Precipitation Wind Pressure Humidity
    00:00 +3°C° 0 mm 1 mps 695 mmHg 73%
    01:00 +3°C° 0 mm 1 mps 695 mmHg 73%
    02:00 +3°C° 0 mm 1 mps 695 mmHg 74%
    03:00 +3°C° 0 mm 1 mps 695 mmHg 74%
    04:00 +3°C° 0 mm 1 mps 695 mmHg 75%
    05:00 +3°C° 0 mm 1 mps 696 mmHg 75%
    06:00 +1°C° 0 mm 0 mps 696 mmHg 76%
    07:00 +3°C° 0 mm 1 mps 696 mmHg 75%
    08:00 +4°C° 0 mm 1 mps 696 mmHg 74%
    09:00 +4°C° 0 mm 1 mps 697 mmHg 72%
    10:00 +5°C° 0 mm 1 mps 696 mmHg 71%
    11:00 +5°C° 0 mm 2 mps 696 mmHg 71%
    12:00 +5°C° 0 mm 2 mps 696 mmHg 70%
    13:00 +5°C° 0.1 mm 2 mps 696 mmHg 72%
    14:00 +5°C° 0.1 mm 2 mps 696 mmHg 75%
    15:00 +5°C° 0.1 mm 2 mps 695 mmHg 77%
    16:00 +4°C° 0 mm 2 mps 696 mmHg 81%
    17:00 +3°C° 0 mm 2 mps 696 mmHg 85%
    18:00 +4°C° 0 mm 1 mps 696 mmHg 89%
    19:00 +4°C° 0.1 mm 1 mps 696 mmHg 90%
    20:00 +3°C° 0.1 mm 1 mps 696 mmHg 91%
    21:00 +3°C° 0.1 mm 1 mps 696 mmHg 93%
    22:00 +3°C° 0.1 mm 1 mps 696 mmHg 93%
    23:00 +3°C° 0.1 mm 1 mps 696 mmHg 93%

    26 January, Friday

    Time Temperature Precipitation Wind Pressure Humidity
    00:00 +3°C° 0.1 mm 1 mps 696 mmHg 94%
    01:00 +3°C° 0.1 mm 1 mps 695 mmHg 94%
    02:00 +3°C° 0.1 mm 1 mps 695 mmHg 94%
    03:00 +3°C° 0.1 mm 1 mps 695 mmHg 94%
    04:00 +3°C° 0.1 mm 1 mps 695 mmHg 94%
    05:00 +3°C° 0.1 mm 1 mps 694 mmHg 94%
    06:00 +3°C° 0.1 mm 1 mps 694 mmHg 94%
    07:00 +3°C° 0.1 mm 1 mps 694 mmHg 93%
    08:00 +2°C° 0.1 mm 2 mps 694 mmHg 92%
    09:00 +2°C° 0.1 mm 2 mps 694 mmHg 91%
    10:00 +3°C° 0.2 mm 2 mps 693 mmHg 90%
    11:00 +3°C° 0.2 mm 2 mps 693 mmHg 89%
    12:00 +3°C° 0.2 mm 2 mps 692 mmHg 87%
    13:00 +3°C° 0.2 mm 2 mps 692 mmHg 87%
    14:00 +3°C° 0.2 mm 2 mps 691 mmHg 88%
    15:00 +3°C° 0.2 mm 2 mps 690 mmHg 88%
    16:00 +3°C° 0.1 mm 2 mps 690 mmHg 89%
    17:00 +2°C° 0.1 mm 2 mps 691 mmHg 91%
    18:00 +2°C° 0.1 mm 2 mps 691 mmHg 93%
    19:00 +2°C° 0.2 mm 2 mps 691 mmHg 93%
    20:00 +1°C° 0.2 mm 2 mps 690 mmHg 93%
    21:00 +2°C° 0.2 mm 1 mps 690 mmHg 94%
    22:00 +2°C° 0.3 mm 1 mps 690 mmHg 94%
    23:00 +2°C° 0.3 mm 1 mps 690 mmHg 94%
    Show more